Theta_e
334 334 335 334 334 331 330 330 330 330 331 332 331 329 331 329 329 328 327 325 323 323 323 323 324 324 322 322 323 323 324 325 324 319 316 313 310 310 315 315 313 314 317 318 316 314 310 305 305 308 309 310 309 308 308 307 306 309 310 309 307 307 308
335 334 333 332 329 330 329 329 329 330 332 331 330 329 328 328 328 326 325 323 322 321 321 321 322 322 321 320 320 319 320 320 320 319 315 312 313 311 312 313 314 312 311 313 314 313 309 309 306 306 307 310 311 308 310 309 308 309 309 308 308 307 308
334 332 331 329 329 329 328 328 329 329 329 329 328 328 328 329 326 325 322 322 322 320 319 319 319 319 318 317 317 318 318 318 318 318 317 316 317 316 317 317 314 313 311 310 310 310 309 309 304 302 305 308 308 307 309 308 309 309 311 309 310 308 307
333 331 329 328 328 328 327 327 327 327 328 327 327 327 327 327 326 324 322 320 321 320 318 316 315 313 314 315 316 317 317 316 315 316 316 316 316 314 314 313 312 311 310 309 309 309 309 309 306 304 305 303 303 306 308 308 309 309 309 308 307 307 307
332 330 329 328 328 326 327 326 327 327 327 326 326 325 324 325 325 322 321 321 320 320 317 317 315 314 314 313 314 315 315 316 316 315 315 314 314 313 312 312 311 312 312 310 310 309 309 307 308 306 304 305 306 306 306 310 309 307 305 306 305 306 306
332 332 330 329 329 327 327 326 326 325 325 324 324 324 324 323 324 321 321 320 318 319 317 316 315 314 314 313 314 314 315 315 316 317 315 315 314 311 309 311 310 311 309 310 311 310 310 309 308 305 305 307 304 305 304 306 303 307 304 304 305 305 305
333 332 332 330 329 328 327 326 326 326 324 324 323 323 323 323 322 322 321 320 318 317 316 315 313 313 313 311 312 311 312 313 314 314 314 314 313 313 313 310 310 309 310 311 310 310 309 308 305 305 305 306 307 302 304 303 303 301 302 303 305 305 304
333 333 332 331 330 329 328 327 327 327 326 325 324 324 323 322 322 321 319 317 317 316 314 314 313 313 313 312 312 312 312 312 313 313 313 313 312 312 312 310 310 309 309 308 309 309 308 307 306 305 304 303 304 304 302 303 303 302 301 303 304 304 304
334 333 332 331 330 330 329 327 327 328 326 325 325 324 323 322 320 318 318 316 316 315 314 312 312 312 313 312 311 311 310 311 311 311 311 311 311 311 311 311 310 308 309 308 309 308 308 308 307 307 305 303 301 299 301 302 302 301 303 301 303 305 304
335 333 331 331 332 330 329 329 327 326 326 326 324 323 321 321 320 318 317 316 315 314 314 313 312 311 311 311 311 311 311 312 311 311 311 311 311 310 310 310 308 307 308 309 309 309 309 308 307 307 305 303 303 300 298 299 301 300 301 303 300 303 305
333 331 331 331 331 329 328 328 327 324 323 325 324 322 321 320 319 318 317 316 315 314 313 312 311 312 312 311 311 311 310 311 310 310 310 311 310 310 309 308 308 307 308 308 307 309 308 308 307 306 306 306 305 301 301 299 299 303 301 304 303 301 304
334 331 331 330 329 326 324 324 324 323 323 322 322 321 319 319 318 317 316 315 314 313 313 312 311 311 311 310 310 309 310 310 309 309 310 309 309 309 308 307 308 307 309 308 308 308 308 307 307 306 305 306 306 304 303 301 298 302 304 302 303 304 304
333 331 329 328 326 324 322 322 323 323 322 322 321 321 319 318 317 316 315 314 313 313 311 311 312 311 311 310 310 309 310 309 308 308 308 308 308 308 308 308 308 308 308 307 307 307 307 307 308 305 305 305 305 305 304 302 300 300 304 303 303 304 305
330 329 328 326 324 322 322 322 322 322 321 320 320 319 318 317 316 315 314 314 313 312 311 311 312 311 311 310 310 309 309 308 308 308 307 307 307 307 306 305 305 306 308 307 307 307 306 306 307 307 307 305 305 305 304 302 299 300 303 306 305 304 306
327 325 326 325 322 320 321 322 322 321 320 319 318 317 317 317 317 315 313 313 312 312 311 311 310 311 309 310 309 309 309 308 307 307 308 306 306 307 307 306 305 306 307 306 306 305 306 306 306 304 305 305 303 304 305 302 300 300 300 304 303 304 304
326 324 324 322 320 320 321 321 321 320 319 318 318 318 317 316 315 314 313 313 311 311 311 310 311 310 310 309 308 309 309 308 308 307 306 305 305 306 306 306 306 307 308 308 307 306 307 307 306 305 304 305 304 304 304 304 302 300 300 300 303 302 303
326 324 322 320 319 320 320 320 320 320 318 317 316 317 317 316 315 314 313 312 311 311 311 311 310 310 309 309 308 308 308 308 308 308 306 305 305 306 306 305 306 307 307 306 306 306 306 306 306 306 305 305 305 304 305 305 304 302 301 299 302 301 302
324 322 321 320 319 320 320 320 320 319 317 316 317 316 316 315 314 313 313 311 311 311 311 310 309 309 309 310 309 308 308 308 308 308 307 306 306 306 306 306 305 306 307 307 306 304 304 305 305 306 305 303 303 304 304 304 303 303 301 299 300 302 302
322 320 319 319 319 319 319 320 319 318 316 315 316 316 315 314 314 313 312 311 311 311 310 309 308 308 308 309 309 309 309 308 308 306 306 306 307 307 306 306 307 307 305 305 304 304 303 303 304 304 304 302 302 302 302 302 302 301 301 299 300 299 301
320 319 319 319 319 318 319 320 319 317 316 316 315 314 314 314 313 312 311 311 311 311 310 309 309 308 308 309 308 309 309 308 307 307 307 307 307 307 307 306 307 305 304 304 303 302 301 302 303 303 302 302 301 301 300 300 300 300 300 299 299 300 299
320 319 319 318 318 318 320 321 319 317 315 315 314 313 313 312 312 312 312 311 311 311 310 309 309 309 308 309 308 308 308 308 307 308 308 307 307 307 307 307 306 303 303 302 302 301 300 299 301 301 301 300 300 299 299 299 299 298 298 298 298 297 298
320 319 318 317 317 319 319 319 318 315 314 314 314 313 312 312 311 311 311 312 311 311 311 310 309 309 308 307 309 308 308 307 308 307 307 307 307 307 306 307 305 302 300 300 300 301 301 300 300 298 299 299 299 298 298 298 298 297 297 297 297 298 298
320 319 317 316 317 318 318 318 315 313 313 312 311 311 311 311 310 311 310 310 310 310 310 310 309 301 303 310 309 309 308 309 307 307 307 307 307 307 308 306 301 298 299 301 302 300 297 297 299 300 299 299 298 297 297 297 297 297 297 295 296 296 296
319 317 316 316 317 317 318 318 313 313 312 311 310 311 309 310 312 312 310 309 310 311 312 310 298 297 296 297 307 309 309 308 308 308 308 307 306 307 307 307 303 301 302 302 303 299 297 295 295 296 297 297 300 299 298 297 296 297 295 295 296 297 296
317 316 316 315 315 315 317 315 312 311 310 308 308 310 311 309 308 308 309 310 309 309 310 302 295 295 297 296 298 309 309 309 309 308 308 307 308 308 307 307 307 306 306 301 304 306 301 296 294 294 293 293 294 294 296 299 297 296 296 295 296 296 296
318 318 317 314 314 314 314 312 311 311 310 311 311 309 308 307 308 308 309 308 308 309 310 296 295 295 295 295 294 300 309 310 308 308 308 308 308 308 307 306 306 306 307 302 304 303 302 304 299 294 295 296 295 294 291 291 292 299 299 297 297 296 297
317 316 315 314 314 313 312 310 310 309 309 310 308 308 309 308 308 308 308 307 309 310 311 298 295 294 295 293 294 296 309 309 308 308 308 307 307 307 307 306 306 305 306 306 305 300 300 301 302 304 306 306 306 305 295 292 291 291 296 300 299 298 299
315 314 314 313 312 312 311 310 309 308 308 307 306 306 306 306 306 307 308 309 310 309 311 295 294 293 293 293 293 295 307 309 308 309 308 307 307 307 307 307 306 305 305 306 303 300 299 299 300 303 305 305 305 305 306 305 304 304 302 301 301 301 301
314 313 312 312 312 310 310 310 309 308 307 306 306 304 303 304 305 306 308 309 309 309 308 293 293 293 292 293 292 304 305 308 307 307 306 306 307 308 307 305 305 305 304 305 297 289 295 298 299 302 304 304 304 305 306 306 299 298 302 302 302 301 302
312 312 312 311 311 309 309 309 308 308 306 305 303 303 303 304 305 307 308 308 309 310 304 294 292 292 292 291 296 304 305 307 306 305 305 306 307 307 307 305 305 305 305 305 294 290 291 292 299 302 303 302 304 305 304 306 298 293 293 293 293 292 292
311 311 310 310 310 310 309 308 307 307 305 304 303 303 304 304 307 307 307 308 309 309 306 297 291 292 292 291 298 303 304 305 303 304 305 307 307 307 305 302 302 304 305 305 288 290 289 296 300 301 301 301 302 302 302 301 301 301 297 296 296 295 294
312 311 311 310 310 309 308 308 308 308 307 305 304 303 305 305 307 307 309 310 309 308 306 298 291 291 291 291 298 304 303 301 303 304 305 305 306 306 304 300 300 300 302 299 287 291 289 295 299 300 300 302 301 300 300 299 299 299 301 302 303 304 304
313 312 310 309 309 308 308 308 308 308 307 305 304 304 305 307 305 306 308 309 308 308 305 302 297 290 291 291 293 302 303 302 303 303 304 304 303 305 304 300 299 293 289 289 289 288 289 289 297 300 300 301 300 297 299 298 299 300 300 301 303 303 303
312 311 311 308 308 308 308 307 307 306 305 305 305 304 304 304 304 305 307 308 307 308 306 302 298 290 291 291 291 293 299 302 305 304 304 303 303 303 303 302 302 294 289 290 289 289 289 289 290 298 300 300 300 301 296 298 300 299 302 303 302 302 301
311 308 308 307 306 306 306 306 305 305 305 305 304 303 302 303 304 304 305 307 306 308 306 303 300 291 291 290 291 290 296 302 302 304 303 303 303 303 303 303 305 295 289 290 289 289 289 289 289 297 300 294 292 291 300 299 299 301 302 302 301 300 300
307 307 306 306 305 305 305 305 305 305 305 304 302 302 302 303 303 303 304 304 305 307 305 302 296 296 291 290 290 290 290 294 293 301 304 303 303 304 305 305 301 291 289 290 289 289 290 289 290 296 292 292 292 291 292 298 300 302 301 301 301 300 299
307 306 305 305 304 304 305 305 305 304 305 303 301 301 301 303 302 301 301 301 303 303 303 301 296 294 294 289 290 290 289 289 289 297 302 305 303 304 305 305 298 288 289 289 289 289 289 290 296 293 291 290 290 291 297 299 301 302 300 300 299 299 299
Wind_Speed
9 8 8 8 6 6 6 6 6 4 3 1 1 1 1 2 2 2 2 3 3 4 4 4 4 4 4 5 5 4 4 3 2 1 2 3 2 3 3 4 3 3 4 5 6 3 2 6 6 3 3 3 2 0 1 2 1 1 0 3 4 3 3
8 9 8 7 7 6 7 6 5 5 3 1 1 2 2 2 2 3 3 3 3 4 4 5 5 6 6 6 5 5 4 4 4 4 3 3 2 3 2 3 4 4 3 4 4 2 5 2 5 5 6 5 3 3 2 1 2 2 2 2 3 4 4
9 9 8 9 7 7 7 6 5 4 3 3 3 2 2 4 3 3 4 4 4 5 6 6 7 7 6 6 6 6 6 6 5 5 5 4 4 4 3 1 1 2 2 3 3 3 2 6 2 2 2 7 6 6 4 3 3 2 4 2 4 3 4
12 11 10 10 7 7 7 6 5 4 4 4 4 2 2 3 2 3 4 5 5 5 5 6 6 6 6 6 7 8 7 7 6 6 6 6 5 4 4 4 4 4 4 3 4 3 3 2 0 1 1 2 2 5 5 3 3 4 4 2 3 1 4
12 10 12 13 11 9 8 7 5 4 4 5 4 4 3 3 3 4 4 5 5 5 5 5 5 6 5 6 6 6 6 6 6 6 5 6 5 5 5 5 5 4 4 4 3 4 4 3 3 1 2 3 1 2 5 5 6 2 1 1 3 2 4
11 12 12 12 11 10 8 8 7 6 6 5 4 4 5 5 4 4 4 5 5 5 6 6 6 6 6 6 6 7 6 6 6 6 5 6 5 5 4 4 4 4 4 4 4 4 3 3 4 3 3 2 3 2 1 4 2 5 3 2 4 2 4
12 12 10 11 11 9 8 8 8 7 6 6 5 5 5 6 5 5 5 6 6 6 6 6 6 6 6 7 7 6 7 6 6 7 6 6 5 5 4 4 5 5 4 4 4 4 5 5 4 5 4 2 1 3 2 0 4 2 4 4 4 3 4
10 10 10 9 10 10 10 9 7 7 6 5 5 5 6 6 6 6 6 6 6 7 7 6 6 7 6 7 6 6 6 5 6 6 6 6 5 6 6 5 4 4 4 4 5 5 5 5 5 5 6 5 1 1 3 3 3 4 5 6 5 4 6
10 10 10 9 9 9 10 9 7 6 6 6 4 6 7 7 7 7 7 7 7 7 7 7 7 6 6 6 6 6 7 5 6 7 6 6 6 6 6 5 5 5 4 5 4 5 5 5 5 4 5 5 6 3 3 2 3 4 5 6 6 5 7
12 12 12 12 11 10 10 8 7 6 6 5 6 7 8 8 7 7 8 8 7 7 7 6 7 7 6 6 6 6 6 5 5 5 5 5 5 6 5 5 4 4 4 4 4 5 4 4 4 4 4 5 6 4 4 4 4 5 6 7 7 7 8
12 12 12 13 10 11 9 8 8 7 6 5 7 7 8 9 8 8 8 7 7 7 7 7 7 7 6 6 6 6 6 5 5 4 4 4 5 5 5 5 4 4 4 4 4 4 3 3 3 4 4 4 5 5 5 5 5 4 7 7 7 8 10
12 13 10 12 11 10 10 9 8 7 8 9 8 9 9 9 8 8 8 8 7 7 7 7 7 6 6 6 6 6 5 4 5 5 4 5 4 5 5 4 4 4 3 3 2 3 3 3 3 3 3 3 3 5 5 5 6 4 6 8 8 9 10
13 14 11 11 11 11 10 9 9 9 9 8 9 10 9 10 9 9 8 8 8 8 8 7 6 7 6 6 5 5 5 5 6 5 5 4 4 4 4 3 3 2 1 1 2 2 2 3 3 3 3 3 2 3 4 5 7 8 7 8 9 10 11
13 11 12 12 11 11 9 9 9 8 9 9 10 10 10 10 10 9 9 9 9 8 8 7 6 6 6 6 5 6 5 5 5 5 5 5 4 4 5 5 4 4 3 2 2 2 3 3 2 2 3 3 3 4 5 6 7 9 8 7 9 9 10
11 10 11 12 11 11 10 9 9 9 9 10 10 10 10 9 9 9 9 9 9 8 8 8 7 6 6 6 6 4 5 5 6 6 5 5 5 4 3 4 5 4 3 3 3 4 4 3 3 4 4 4 4 4 5 6 7 8 10 9 9 10 10
12 13 13 11 11 11 10 10 9 9 9 9 9 9 10 9 10 9 9 9 9 8 8 8 7 6 7 7 7 6 5 6 5 6 5 5 5 5 4 3 3 2 0 1 1 3 3 4 4 3 4 4 4 5 5 6 7 8 10 10 10 10 9
13 13 12 11 12 11 10 9 9 9 10 9 9 9 9 9 10 9 9 9 9 8 8 7 7 7 8 7 7 7 6 6 5 5 5 6 5 4 4 3 2 1 1 1 3 3 4 4 4 3 4 5 5 5 6 6 7 8 9 10 10 10 10
13 12 12 11 12 11 11 10 8 10 10 10 10 9 9 9 9 9 9 10 9 9 9 8 8 8 7 7 7 7 7 6 5 5 5 5 4 4 3 3 3 2 1 2 2 4 4 5 4 4 5 5 5 6 6 7 8 8 9 10 10 9 10
13 12 12 12 13 12 10 9 9 9 10 10 10 9 10 9 8 9 9 9 9 9 8 8 8 9 8 8 7 7 6 6 6 6 5 5 4 4 3 3 1 2 2 2 3 4 5 5 4 5 5 6 6 7 7 8 7 8 9 9 10 10 9
12 11 11 11 11 11 10 10 10 10 10 10 9 9 9 9 8 8 9 9 9 9 9 8 8 8 8 8 8 7 7 7 7 5 5 5 5 4 3 2 2 2 2 3 3 4 5 6 4 5 5 6 7 7 7 7 8 9 9 9 9 9 10
13 12 11 11 11 11 11 10 10 10 10 10 10 9 9 9 7 7 7 7 7 7 8 8 8 8 8 8 7 8 7 7 7 6 5 5 4 4 3 3 3 3 3 4 4 4 5 5 6 5 5 6 7 7 7 7 8 8 8 9 9 9 9
12 12 13 13 12 12 11 10 10 10 10 10 8 9 8 8 8 7 7 6 7 6 6 6 7 8 8 8 7 7 7 7 7 6 6 5 5 4 4 3 3 4 4 2 2 3 3 4 4 5 6 6 6 7 7 7 7 8 8 9 9 9 9
15 14 13 12 12 12 12 11 10 11 11 10 9 8 8 7 8 7 8 6 5 4 3 3 6 9 7 3 8 6 6 6 7 6 6 6 5 5 5 5 5 6 6 7 8 7 6 6 7 4 4 5 5 6 6 7 7 7 8 9 9 10 10
15 15 12 10 11 14 14 11 11 11 11 11 10 8 8 7 6 3 8 9 9 7 6 3 10 8 6 8 1 7 6 7 6 6 5 5 6 5 4 5 7 7 8 9 9 10 9 10 10 10 11 10 8 6 5 7 7 8 8 9 9 9 10
15 14 14 13 13 12 10 11 11 11 11 12 11 10 9 8 10 10 9 8 8 7 6 9 11 9 5 4 6 1 6 5 5 5 5 6 5 5 5 3 3 3 3 3 3 6 10 12 11 12 13 12 11 12 11 7 5 7 8 9 9 10 11
15 16 16 15 13 12 12 11 11 11 11 9 8 10 11 11 11 10 8 9 10 9 7 10 11 9 6 1 4 5 4 5 5 5 5 6 4 4 4 4 4 3 3 6 8 3 5 4 11 15 15 14 13 12 12 15 13 8 6 9 9 10 10
16 16 15 13 13 14 14 13 12 11 10 9 9 9 9 10 9 9 9 10 9 9 8 11 12 9 6 2 2 4 3 6 5 6 5 3 2 3 4 4 4 4 3 3 1 4 5 6 7 6 7 7 6 10 15 14 14 15 13 8 9 10 11
15 15 14 13 13 13 13 12 13 11 10 10 9 8 9 9 9 9 10 10 9 9 7 13 12 10 8 3 1 3 5 4 5 3 3 3 4 5 4 3 1 1 2 2 4 4 5 7 7 7 7 6 6 7 4 7 8 5 6 8 9 10 11
14 14 14 14 14 13 12 12 12 11 11 9 8 8 8 9 10 10 11 10 9 10 8 14 12 11 9 6 3 4 4 3 3 3 4 5 5 4 4 4 4 3 2 2 5 3 2 5 7 8 7 7 7 6 6 3 2 5 7 9 9 10 11
14 14 14 15 14 13 13 13 10 9 10 10 10 10 10 9 10 10 10 10 9 8 8 9 12 12 10 8 5 6 5 4 5 5 5 5 6 5 5 5 5 3 3 4 4 2 2 3 7 8 7 8 7 7 7 2 7 10 11 12 14 16 17
15 14 14 15 14 13 12 10 11 10 10 10 10 10 10 10 10 9 10 10 9 8 8 8 11 11 10 10 8 8 5 5 6 6 6 5 5 5 4 8 5 2 1 4 4 2 3 4 7 7 7 8 8 7 7 8 9 9 11 12 13 15 16
14 14 14 13 13 14 13 12 11 10 10 9 9 8 8 8 8 8 9 9 8 8 9 9 9 11 10 10 7 7 6 6 6 6 6 6 6 5 5 6 4 5 4 4 3 2 2 3 6 7 8 8 7 8 8 10 10 11 11 11 11 11 10
14 14 13 12 10 11 10 11 12 11 10 9 9 8 7 6 7 7 8 8 8 7 9 10 9 11 10 9 9 7 6 6 6 6 6 5 6 6 6 6 7 9 4 3 1 2 3 1 4 7 8 7 7 8 9 11 11 11 12 12 11 11 11
12 10 10 11 10 9 9 10 11 11 10 8 9 9 8 8 8 8 8 8 8 8 8 10 9 11 9 9 9 8 6 7 5 6 6 6 6 6 6 7 7 10 8 6 4 3 4 5 5 6 7 7 7 8 9 9 12 14 12 10 10 10 10
11 9 9 11 11 10 9 10 10 11 10 9 10 9 8 8 9 8 8 6 7 7 8 10 10 9 10 9 9 9 7 6 8 4 7 6 7 6 6 7 6 8 8 6 6 4 5 7 6 5 7 12 13 13 11 10 11 10 8 9 9 10 10
10 7 8 9 11 11 10 10 10 10 9 10 10 10 10 9 9 8 8 7 8 7 7 7 12 10 10 9 10 8 6 6 9 9 6 7 7 5 4 4 8 9 8 7 5 5 6 8 6 8 13 15 15 16 12 8 10 8 8 9 9 9 10
10 9 11 11 11 11 11 10 10 9 9 9 9 10 10 9 9 9 9 8 8 8 8 8 10 11 10 10 8 7 5 7 5 5 7 3 6 4 3 5 7 8 7 4 4 5 7 7 8 12 12 13 14 13 8 10 7 7 8 8 8 9 10
Wind_Direction
176 160 155 158 145 138 136 131 127 122 132 140 38 9 133 128 113 129 104 83 93 99 106 97 84 77 89 78 59 65 51 40 7 100 81 52 61 77 43 39 69 56 38 49 354 325 259 169 170 133 147 152 134 320 316 315 21 31 254 326 328 320 350
162 148 159 157 148 143 136 138 143 155 141 59 95 146 135 130 146 101 99 98 91 95 93 92 86 79 73 73 75 68 64 68 49 49 89 84 76 75 68 64 37 28 62 51 8 349 339 223 163 176 176 163 182 180 176 297 337 315 294 347 314 307 353
155 153 159 163 149 145 141 139 130 128 148 157 156 158 176 137 120 128 114 98 84 75 80 86 89 87 81 78 72 73 77 78 57 52 54 58 53 34 3 345 63 139 80 49 36 357 49 3 40 136 173 189 197 170 146 219 236 287 266 298 275 292 330
156 162 163 165 145 151 147 143 143 153 162 154 149 155 137 96 111 91 110 110 98 103 99 95 88 92 91 88 80 74 71 74 76 72 66 59 62 48 45 38 47 37 27 42 29 31 10 18 58 121 198 320 324 164 180 172 250 233 241 280 283 320 330
166 170 169 170 167 159 154 148 148 157 164 158 165 150 160 150 144 114 106 108 106 101 94 94 99 95 93 92 84 82 77 73 75 74 72 74 67 73 61 55 54 42 39 37 43 23 16 19 335 6 24 333 250 9 147 176 198 246 193 302 335 345 321
172 172 172 170 170 168 157 151 161 166 161 162 164 165 156 163 147 139 128 110 103 94 93 94 87 88 90 90 87 81 73 71 63 62 67 54 57 70 68 59 53 52 56 45 28 25 25 15 12 7 10 46 334 310 32 174 152 177 23 9 345 1 332
175 177 174 173 169 166 158 161 170 168 169 165 168 173 163 162 156 137 119 109 104 107 104 100 99 98 97 97 94 90 86 81 81 80 75 69 68 61 61 64 51 56 46 32 33 37 30 29 33 17 342 327 294 345 315 98 106 1 24 360 349 351 340
183 173 175 172 167 168 169 166 172 173 160 164 173 158 166 156 151 137 125 123 113 107 108 107 105 98 94 96 90 88 87 80 80 78 76 78 73 69 67 65 67 59 47 39 31 31 40 33 30 14 358 349 269 106 347 8 13 61 5 351 345 345 347
183 174 170 167 168 169 166 167 174 166 156 153 166 150 161 154 152 140 136 124 125 119 116 118 115 106 102 99 96 96 93 92 95 96 101 90 81 77 72 67 67 56 39 33 39 37 29 26 27 15 9 12 354 4 359 348 13 7 21 353 336 343 345
172 171 167 167 165 162 171 169 163 158 157 169 161 159 163 151 156 147 132 128 127 125 116 111 109 112 112 107 104 103 100 98 91 86 87 88 87 78 76 75 78 74 52 38 37 32 28 19 25 16 18 24 358 347 358 342 10 338 355 352 333 335 338
164 170 166 165 159 162 160 163 159 144 153 173 163 162 158 156 150 139 135 136 130 127 128 122 116 115 115 111 112 106 105 110 112 110 93 86 83 77 76 74 70 64 43 47 46 23 21 13 18 24 12 21 16 6 354 337 330 341 339 333 332 328 328
166 171 149 154 157 151 143 142 147 148 142 152 160 161 162 155 149 146 142 138 136 132 129 124 125 124 119 117 115 115 125 125 110 103 99 98 93 94 92 87 84 73 66 49 40 44 25 10 1 21 18 8 25 4 345 329 316 342 337 322 321 320 318
172 166 150 149 152 148 146 146 149 148 154 158 161 160 160 154 154 149 148 142 142 137 133 137 133 125 126 126 132 131 123 127 121 112 108 99 101 110 112 94 62 70 97 107 70 25 36 32 357 1 9 358 3 1 332 321 311 307 325 319 318 312 316
169 152 146 149 146 145 149 147 152 152 156 161 158 164 160 157 154 153 148 149 145 142 140 140 137 137 134 138 128 126 137 126 119 111 109 111 109 97 86 84 81 70 27 23 23 36 25 4 358 358 353 344 344 346 334 322 312 312 311 320 313 314 313
152 145 144 148 145 147 148 154 154 157 159 160 166 162 160 156 153 154 151 149 148 144 145 139 143 146 142 137 131 136 135 131 120 121 116 104 98 90 86 81 82 65 33 32 10 22 15 358 360 11 345 355 339 334 334 320 316 307 308 312 315 312 309
151 151 149 145 147 148 150 155 160 161 161 161 166 162 157 158 157 155 154 150 149 148 146 143 147 150 144 142 142 141 138 127 125 124 126 122 112 109 107 112 99 74 22 10 30 39 14 360 344 9 348 337 331 325 322 316 307 303 306 308 310 313 317
150 152 148 147 149 152 153 156 164 162 161 164 162 160 154 160 159 158 156 155 150 153 148 148 152 151 151 148 147 146 139 135 138 132 125 123 124 125 112 109 97 105 38 50 7 30 27 356 344 354 343 336 320 329 321 308 300 299 303 304 310 313 319
150 146 145 148 150 153 155 160 164 163 158 165 159 155 158 163 162 161 159 159 156 157 151 154 153 151 151 155 151 145 148 142 135 127 115 111 118 119 132 102 95 62 20 21 32 19 17 356 348 345 345 336 329 330 320 311 306 305 305 303 307 311 314
146 145 146 149 151 153 159 162 163 162 162 161 155 156 164 163 164 162 165 161 161 157 154 156 155 154 153 156 151 153 144 142 137 130 131 138 130 125 118 123 91 65 36 28 30 20 7 351 347 339 345 337 329 328 321 311 309 311 306 306 311 313 319
143 144 148 152 152 155 164 165 165 160 160 156 155 160 163 161 164 165 167 161 161 161 156 158 156 155 157 157 156 153 149 147 144 139 148 137 135 136 125 116 122 75 49 30 28 24 8 352 346 339 347 336 333 326 320 319 320 313 314 316 313 317 320
144 145 150 152 156 158 167 167 165 156 157 155 159 159 159 158 158 164 161 163 159 161 156 162 158 160 161 158 157 157 156 156 152 153 149 146 137 137 147 145 121 86 54 42 22 26 18 0 347 342 349 337 335 327 324 324 321 320 322 323 321 325 327
146 150 156 157 161 167 164 164 159 155 153 156 159 147 144 146 158 164 155 163 158 158 167 166 161 168 164 160 161 163 162 163 157 158 163 156 163 161 156 137 105 93 78 69 21 327 326 323 344 345 339 339 333 330 326 326 326 328 326 324 324 329 325
157 161 156 158 160 168 166 161 157 153 151 139 132 153 139 143 168 163 149 152 145 136 165 196 77 52 25 149 163 164 167 166 167 164 173 166 174 188 182 153 127 134 187 206 206 214 216 222 244 281 324 323 326 333 334 331 334 336 331 327 330 329 327
159 160 151 154 161 171 171 165 157 153 147 147 148 122 140 160 100 89 150 171 156 160 182 151 108 73 66 9 157 166 173 171 178 170 180 180 180 188 194 177 152 181 199 212 215 220 221 220 225 240 246 249 257 279 322 330 332 335 333 324 323 326 326
162 155 155 151 148 146 137 152 159 153 150 152 155 154 152 143 152 173 189 167 163 181 177 125 123 122 51 13 1 281 174 173 184 174 194 188 197 185 185 164 178 188 188 25 321 218 213 217 226 231 240 244 237 243 254 273 299 320 332 323 319 322 321
162 162 167 157 149 141 148 153 147 143 141 139 141 151 164 167 173 175 169 166 183 187 159 145 132 140 141 1 15 333 195 168 181 196 194 206 202 162 171 186 199 219 154 179 231 299 343 261 216 229 239 245 242 233 232 241 254 248 300 311 316 314 323
156 160 160 152 149 156 158 155 156 155 149 145 149 158 156 163 162 169 177 185 189 183 165 154 147 144 141 169 349 343 271 165 199 205 202 180 174 183 192 205 193 196 178 216 68 2 341 318 323 293 258 250 266 214 217 228 232 239 243 282 310 312 313
154 155 153 151 155 158 159 155 158 156 154 156 161 165 170 169 176 179 191 194 186 190 146 152 151 148 141 159 203 311 278 259 196 200 166 174 199 200 199 224 256 224 183 211 66 33 330 330 322 301 297 313 310 317 281 208 223 280 307 306 303 305 304
149 149 151 152 154 157 158 157 156 152 153 157 159 169 180 182 182 191 195 195 185 185 133 152 147 146 146 153 152 236 232 253 189 185 196 196 207 200 190 200 209 211 230 129 99 106 332 321 311 300 311 321 320 313 308 122 257 253 273 298 299 298 297
150 153 155 157 158 156 156 156 150 154 156 160 168 177 179 182 188 193 191 194 188 172 129 152 148 146 150 151 183 211 216 218 205 208 208 200 206 197 191 198 215 197 225 99 105 104 54 305 305 307 322 325 317 315 323 342 205 237 248 249 256 264 266
153 154 156 161 160 159 156 156 156 163 164 168 173 178 180 185 186 188 188 189 189 177 147 149 149 146 152 170 199 204 212 217 208 204 201 195 206 193 130 59 344 249 214 101 99 77 32 316 312 319 326 323 318 326 332 337 325 317 312 300 290 274 263
154 158 162 159 156 155 157 156 157 162 168 170 171 173 180 182 175 179 184 188 161 170 148 148 156 150 161 174 197 212 221 213 209 197 201 186 212 197 158 167 213 282 352 82 86 47 4 319 311 323 325 314 321 329 338 331 320 318 316 314 309 312 308
159 157 156 151 149 151 150 155 160 165 162 165 164 166 163 169 174 170 173 183 166 173 152 157 159 155 167 178 209 229 227 233 206 192 206 197 195 210 179 178 182 212 192 160 257 262 282 280 288 310 317 311 325 324 332 318 310 303 303 300 312 322 322
139 128 131 140 138 139 147 149 151 153 157 163 158 148 165 169 170 169 176 173 169 172 159 163 153 163 168 183 204 228 252 266 228 191 207 197 208 199 198 199 186 174 185 176 197 224 269 260 264 291 292 304 316 316 308 300 296 294 292 315 327 328 333
107 114 111 127 130 130 133 140 149 152 163 157 144 151 174 173 171 165 163 158 170 177 152 155 158 167 176 187 206 214 236 266 342 290 207 206 209 204 198 217 160 147 172 187 189 223 252 266 258 257 276 284 296 297 290 290 287 289 325 333 333 336 336
131 121 125 128 133 134 139 146 153 162 155 139 148 159 178 180 169 160 160 170 173 169 165 155 151 167 179 190 207 212 231 276 307 299 230 205 216 204 196 120 106 136 169 192 199 220 245 258 257 248 254 268 275 281 281 280 279 312 335 332 331 339 339
129 127 134 140 141 143 152 154 157 150 141 159 168 174 176 166 166 165 168 175 178 179 170 169 155 166 173 191 207 203 198 235 292 311 327 272 203 213 188 106 116 148 186 186 235 247 256 249 256 271 269 263 265 269 276 271 286 339 326 325 339 339 342